Hourly Data Report for June 03, 2017

TORONTO CITY
ONTARIO

43°40'00.000" N
79°24'00.000" W
112.50 m
6158355
71508
XTO

Download Data

Hourly Data (June 2017)
Hourly Data Report for June 3, 2017
TIME
LST
Temp Definition
°C
Dew Point Definition
°C
Rel Hum Definition
%
Precip. Amount Definition
mm

Wind Dir Definition
10's deg

Wind Spd Definition
km/h
Visibility Definition
km
Stn Press Definition
kPa
Hmdx Definition


Wind Chill Definition


Weather Definition


00:00 14.0 3.5 49 0.0 LegendMM LegendMM   100.24     LegendNANA
01:00 14.0 3.8 50 0.0 LegendMM LegendMM   100.25     LegendNANA
02:00 13.8 4.4 53 0.0 LegendMM LegendMM   100.24     LegendNANA
03:00 13.8 3.6 50 0.0 LegendMM LegendMM   100.20     LegendNANA
04:00 13.1 3.8 53 0.0 LegendMM LegendMM   100.28     LegendNANA
05:00 12.7 4.0 56 0.0 LegendMM LegendMM   100.42     LegendNANA
06:00 12.2 4.6 60 0.0 LegendMM LegendMM   100.44     LegendNANA
07:00 14.7 5.3 53 0.0 LegendMM LegendMM   100.46     LegendNANA
08:00 15.6 5.9 52 0.0 LegendMM LegendMM   100.49     LegendNANA
09:00 15.7 7.8 59 0.0 LegendMM LegendMM   100.50     LegendNANA
10:00 15.9 7.1 56 0.0 LegendMM LegendMM   100.50     LegendNANA
11:00 17.9 6.6 48 0.0 LegendMM LegendMM   100.45     LegendNANA
12:00 18.7 5.6 42 0.0 LegendMM LegendMM   100.45     LegendNANA
13:00 19.8 4.3 36 0.0 LegendMM LegendMM   100.41     LegendNANA
14:00 20.3 5.6 38 0.0 LegendMM LegendMM   100.36     LegendNANA
15:00 21.4 4.6 33 0.0 LegendMM LegendMM   100.32     LegendNANA
16:00 20.8 3.9 33 0.0 LegendMM LegendMM   100.30     LegendNANA
17:00 20.9 2.7 30 0.0 LegendMM LegendMM   100.28     LegendNANA
18:00 19.1 2.4 33 0.0 LegendMM LegendMM   100.25     LegendNANA
19:00 19.0 4.1 37 0.0 LegendMM LegendMM   100.22     LegendNANA
20:00 18.0 5.2 43 0.0 LegendMM LegendMM   100.22     LegendNANA
21:00 16.9 6.1 49 0.0 LegendMM LegendMM   100.24     LegendNANA
22:00 16.7 5.7 48 0.0 LegendMM LegendMM   100.23     LegendNANA
23:00 16.2 5.6 50 0.0 LegendMM LegendMM   100.21     LegendNANA

Notes on Data Quality.

Legend

  • E = Estimated
  • M = Missing
  • NA = Not Available*
  • [empty] = Indicates an unobserved value
Date modified: